Regional Weather Roundup
Issued by NWS Albany, NY

Home | Current Version | Previous Version | Graphics & Text | Print | Product List | Glossary Off
Versions: 1 2 3 4 5 6 7 8 9 10 11 12 13 14 15 16 17 18 19 20 21 22 23 24 25 26 27 28 29 30 31 32 33 34 35 36 37 38 39 40 41 42 43 44 45 46 47 48 49 50

000
ASUS41 KALY 271210
RWRALY

NEW YORK STATE HOURLY WEATHER ROUNDUP
NATIONAL WEATHER SERVICE ALBANY NY
800 AM EDT THU JUL 27 2017

NOTE: "FAIR" INDICATES FEW OR NO CLOUDS BELOW 12,000 FEET WITH NO
SIGNIFICANT WEATHER AND/OR NO OBSTRUCTIONS TO VISIBILITY.

NYZ032-033-038>043-046>054-057>066-NYZ062>081-082-084-271300-
EAST


CITY           SKY/WX    TMP DP  RH WIND       PRES   REMARKS
ALBANY         LGT RAIN  65  58  78 S10       30.00S
GLENS FALLS    CLOUDY    63  58  83 S6        29.98S
POUGHKEEPSIE   CLOUDY    65  59  81 VRB3      30.03F
NEWBURGH       PTSUNNY   64  63  94 VRB5      30.06F
MONTGOMERY     CLOUDY    64  61  90 SW6       30.04F
WHITE PLAINS   PTSUNNY   66  60  81 CALM      30.06S
ISLIP          CLOUDY    67  62  84 W7        30.06S
NEW YORK CITY  CLOUDY    70  62  76 SW7       30.05S
CENTRAL PARK   CLOUDY    69  62  78 VRB3      30.08F
$$

NYZ005>009-017-018-044>046-055-056-271300-
CENTRAL


CITY           SKY/WX    TMP DP  RH WIND       PRES   REMARKS
FULTON         RAIN      66  64  93 S6        29.97R FOG
SYRACUSE       LGT RAIN  65  64  97 S7        29.96F
ROME           LGT RAIN  66  64  93 E3        29.97F
ELMIRA         CLOUDY    66  63  90 CALM      30.01S
BINGHAMTON     PTSUNNY   63  62  97 SW5       30.04S
$$

NYZ026>034-041>043-087-271300-
NORTH


CITY           SKY/WX    TMP DP  RH WIND       PRES   REMARKS
WATERTOWN      LGT RAIN  66  66 100 SW9       29.92F FOG
FORT DRUM      NOT AVBL
OGDENSBURG     PTSUNNY   67  65  94 SW5       29.90S
MASSENA        CLOUDY    67  65  93 SW6       29.90S
SARANAC LAKE   CLOUDY    62  62 100 SW7       29.94F
PLATTSBURGH    CLOUDY    65  63  93 S6        29.91S
$$

NYZ001>004-010>016-019>021-085-271300-
WEST


CITY           SKY/WX    TMP DP  RH WIND       PRES   REMARKS
NIAGARA FALLS  CLOUDY    70  64  81 CALM      29.97S
BUFFALO        CLOUDY    68  65  90 W5        29.98S
DUNKIRK        CLOUDY    68  65  90 SW5       29.98F
JAMESTOWN      CLOUDY    63  59  88 S5        30.02F
WELLSVILLE     CLOUDY    66  61  84 SW5       30.06F
ROCHESTER      LGT RAIN  67  65  93 SW3       29.98S
PENN YAN       LGT RAIN  66  62  87 SW7       30.00S FOG
$$

             KEY
       WCI = WIND CHILL INDEX
       VSB = VISIBILITY
       HX  = HEAT INDEX
$$



USA.gov is the U.S. government's official web portal to all federal, state and local government web resources and services.